Wind_Speed
16 18 18 18 17 14 12 13 13 13 12 12 14 14 13 11 5 2 3 5 8 12 14 14 14 15 16 15 13 13 13 12 12 11 11 12 14 14 14 13 12 12 12 11 10 9 9 10 10 12 13 13 14 15 15 15 14 13 13 12 12 12 12 12 12 12 13 13 13 13 13 13 13 14
17 18 19 19 20 16 13 14 14 14 13 12 12 13 14 14 10 5 3 5 10 13 14 13 15 16 15 13 12 13 15 15 14 13 11 12 14 14 13 13 11 11 12 11 11 10 9 10 11 12 13 14 15 15 16 16 15 14 14 14 14 14 14 14 14 13 13 13 13 13 12 12 12 13
18 19 20 20 23 19 15 16 15 14 16 15 13 12 14 15 14 10 5 2 8 12 10 9 17 18 14 12 13 13 14 15 14 14 13 12 14 13 13 12 10 10 12 11 11 11 10 10 12 13 14 15 15 15 15 15 14 14 15 16 16 16 16 15 15 14 14 14 14 14 14 13 13 13
19 21 21 21 23 22 18 18 18 16 16 18 17 14 15 16 15 14 9 4 6 10 7 8 15 15 12 12 14 13 13 13 14 15 14 12 14 15 14 14 13 12 12 12 12 11 11 12 13 14 15 15 15 15 14 14 14 15 16 17 17 17 16 15 15 15 15 16 16 15 15 14 14 14
21 22 23 22 22 24 22 20 21 19 17 19 20 17 16 17 17 16 13 9 7 8 9 9 10 12 14 14 14 14 14 14 14 15 14 14 15 16 16 16 15 14 13 13 13 13 13 14 15 16 16 16 15 14 14 14 14 15 17 17 17 16 15 15 15 16 17 17 17 16 15 14 13 13
23 23 25 25 23 23 24 22 22 22 19 20 21 21 19 18 19 18 17 13 10 9 11 12 10 11 15 15 15 16 15 15 15 15 15 15 14 15 16 16 15 15 14 14 15 15 15 15 15 17 17 16 15 14 14 14 15 16 17 16 16 16 16 16 17 18 19 18 18 17 15 14 13 12
26 24 25 27 25 24 24 24 23 23 22 22 23 23 22 21 20 20 20 17 14 11 12 14 13 12 13 14 14 15 16 16 16 15 15 16 15 15 15 16 15 16 15 14 14 14 15 15 17 18 17 15 14 12 12 13 14 16 16 15 15 16 17 19 19 19 19 18 18 17 16 15 15 14
28 27 26 27 27 26 25 25 25 24 23 24 24 24 24 23 22 21 22 21 17 14 13 15 17 15 14 15 14 14 16 16 16 16 15 15 16 16 15 15 16 17 16 14 14 15 15 16 18 18 16 14 12 11 11 12 12 13 13 14 15 16 18 19 19 18 17 17 17 18 17 17 15 14
29 29 28 28 29 28 27 26 27 26 25 24 25 25 25 25 24 21 22 24 21 17 15 15 17 18 16 18 18 16 16 17 16 17 17 16 16 17 17 16 16 17 17 17 16 16 16 16 17 17 16 14 12 11 10 10 10 11 11 11 13 15 16 16 16 15 15 16 18 19 19 17 16 15
31 31 30 29 29 30 30 29 28 28 27 25 25 26 26 25 26 24 22 24 24 22 18 15 17 19 18 18 19 18 18 18 18 17 17 17 17 17 18 18 17 16 16 16 16 15 15 16 17 16 15 14 12 11 10 9 10 11 10 10 11 12 13 13 13 14 15 17 18 19 19 18 17 17
31 32 32 31 31 32 32 31 30 30 30 28 27 27 27 25 26 26 23 24 25 24 21 17 17 19 19 18 18 19 19 18 18 18 17 17 19 19 19 19 19 17 14 13 13 13 13 15 16 14 13 14 13 11 10 10 11 10 9 10 12 12 12 12 13 15 18 19 18 18 18 18 19 19
31 32 33 32 33 34 35 34 33 32 32 32 29 28 28 27 27 27 25 24 24 24 23 21 19 18 19 19 18 18 19 19 20 20 20 18 19 20 21 21 21 19 17 15 13 12 13 16 16 14 13 13 13 11 11 11 11 11 10 11 13 13 12 13 14 16 17 17 18 18 18 18 19 20
33 32 32 33 33 34 36 37 36 35 35 35 34 32 31 30 28 28 27 25 24 23 22 22 21 19 19 21 21 20 22 24 24 22 21 19 18 18 19 21 21 19 17 17 16 12 11 12 11 11 10 10 11 12 11 11 12 12 12 13 13 12 12 14 14 13 12 12 13 14 14 14 14 15
34 34 33 33 34 34 36 38 39 39 38 38 38 37 36 35 32 29 28 27 26 24 22 22 22 20 19 22 24 24 24 25 24 21 21 21 18 16 16 16 16 16 15 16 15 13 11 10 9 10 11 10 10 11 11 10 11 11 11 11 11 11 14 15 13 11 10 9 10 10 11 11 11 12
34 34 34 34 34 35 37 39 40 41 40 40 39 39 38 38 37 34 31 29 28 26 24 23 23 22 21 22 25 25 23 23 23 23 23 22 20 17 15 12 12 14 15 15 14 14 14 12 11 12 12 11 10 12 12 11 10 10 9 9 11 13 15 14 13 11 10 10 11 11 11 12 13 13
34 34 34 34 34 36 38 40 41 43 43 42 40 39 38 39 39 39 37 34 31 29 27 25 24 24 23 23 25 26 24 23 24 24 23 23 21 19 17 15 13 13 14 15 14 15 13 11 11 12 12 12 11 12 13 11 10 10 11 12 13 14 14 13 12 11 10 11 12 13 13 14 14 15
36 35 35 34 34 35 37 40 42 43 44 44 42 40 39 39 40 40 39 37 35 33 31 28 27 27 25 25 26 27 26 25 25 24 23 23 22 20 19 18 16 13 13 15 15 14 13 10 10 12 12 10 10 11 12 11 12 14 13 13 14 15 13 12 11 9 9 11 12 13 14 14 15 15
38 38 36 36 36 35 35 39 42 44 45 45 44 42 41 41 41 41 41 39 36 34 32 30 29 28 27 26 27 27 27 27 27 27 25 23 23 23 20 18 15 12 13 15 13 12 13 11 11 13 11 9 9 11 11 12 13 13 13 14 14 13 12 12 11 10 11 12 12 13 13 14 14 15
40 39 38 37 37 36 36 38 41 43 45 45 45 44 44 43 41 41 42 42 39 37 35 32 30 28 28 27 26 26 28 28 28 28 27 25 22 21 19 16 14 13 14 15 14 13 13 12 11 12 11 8 8 9 9 10 10 12 15 15 14 12 12 12 10 11 12 12 12 12 12 13 14 14
40 40 39 38 38 38 38 39 41 43 43 43 44 44 44 43 40 40 43 44 43 40 38 35 31 28 27 28 26 25 27 28 27 25 23 23 21 18 16 16 16 16 17 18 19 17 16 14 12 11 10 9 9 9 10 11 12 15 16 15 13 13 12 11 10 11 12 12 12 12 12 13 13 13
39 39 40 39 38 39 40 40 40 42 43 42 41 42 43 41 38 38 41 42 43 43 40 38 34 29 26 27 27 26 26 27 27 25 22 22 22 19 16 14 17 19 20 23 25 21 17 15 14 11 10 9 10 11 11 12 14 15 13 12 13 13 11 11 11 12 12 12 12 11 12 13 13 13
37 39 41 41 41 40 40 41 40 41 44 43 40 40 41 39 38 39 38 37 40 43 42 38 36 33 30 28 27 28 29 29 28 28 26 24 22 20 18 17 18 20 22 25 27 23 17 15 13 11 9 9 11 11 9 8 9 10 10 12 13 12 12 12 12 12 12 12 12 12 12 13 13 14
35 37 39 42 44 43 41 40 40 41 44 44 41 39 38 37 40 42 39 34 35 40 43 40 38 36 35 32 28 28 30 31 31 31 29 26 24 23 21 20 17 13 14 22 27 24 19 17 14 11 8 6 8 9 7 7 7 9 10 11 12 13 14 14 12 11 12 13 12 12 12 13 13 14
35 36 37 39 43 45 43 41 41 42 45 47 43 39 38 40 42 42 40 37 35 37 42 44 41 38 37 36 33 29 30 32 33 32 31 29 27 25 23 22 19 11 9 19 26 23 20 18 16 13 10 7 6 6 7 8 9 10 11 11 14 15 14 13 12 12 13 13 12 11 12 12 11 13
34 35 35 34 36 40 43 44 44 43 45 48 46 43 43 44 43 39 39 40 38 37 40 43 41 38 36 35 34 32 31 33 34 34 34 32 29 26 23 22 20 15 11 17 24 23 19 18 16 13 11 9 9 9 9 9 9 11 12 14 16 15 13 13 14 13 13 13 11 11 12 12 11 13
33 33 33 32 32 34 38 43 47 46 45 48 50 49 47 45 42 39 39 39 38 37 39 40 39 38 37 35 34 33 33 34 34 35 35 32 28 25 24 22 21 18 14 18 24 24 20 19 17 14 11 10 10 10 10 9 9 10 13 14 14 14 13 14 14 14 13 12 11 12 12 12 13 15
33 32 31 31 30 31 34 40 46 49 47 48 52 52 48 44 42 41 38 36 37 38 38 38 38 38 38 37 35 35 35 35 35 36 35 32 29 26 23 21 22 20 17 19 24 23 20 18 17 15 14 12 11 10 9 9 9 10 11 12 13 13 14 14 14 14 13 13 13 12 12 12 14 15
33 31 30 30 30 32 34 36 40 47 50 50 52 53 50 45 43 42 39 38 39 39 38 38 38 38 39 39 38 38 38 36 36 35 33 32 31 29 25 22 22 20 17 18 21 21 18 17 15 15 15 14 13 11 9 8 9 9 10 12 13 13 14 14 14 15 15 14 14 12 12 13 14 14
36 33 30 29 29 30 32 33 35 42 50 53 52 54 54 50 45 44 43 40 39 39 38 38 38 38 40 42 42 41 38 36 35 34 32 30 30 30 26 23 22 20 17 17 17 17 16 15 14 14 15 15 15 13 11 10 10 11 12 14 14 15 15 15 15 15 16 15 14 13 13 13 12 13
42 39 36 34 33 33 32 33 34 38 45 51 54 56 58 55 50 46 43 40 38 38 38 38 39 40 41 41 41 40 38 37 37 36 33 30 29 30 28 25 23 22 20 18 16 16 15 15 14 14 15 16 16 15 14 12 12 12 13 14 15 16 15 14 14 15 16 16 14 12 11 11 12 15
46 39 36 38 43 44 41 37 35 35 39 48 55 57 59 58 53 48 45 42 39 39 39 39 39 39 40 39 39 40 40 39 38 38 36 34 32 31 30 27 24 23 21 19 18 17 17 16 16 17 18 17 16 16 15 14 14 14 14 15 16 16 16 15 15 15 15 15 13 11 11 13 15 17
43 30 29 36 41 44 42 38 35 34 37 45 52 55 56 56 54 49 46 43 42 42 42 41 39 38 39 40 39 39 39 38 39 40 39 36 34 33 30 27 24 22 21 19 19 18 19 19 19 20 20 20 19 17 15 14 15 16 16 17 18 18 19 19 19 17 14 12 12 12 14 15 16 17
32 25 31 39 38 34 34 32 33 36 39 42 45 48 50 51 50 48 46 44 44 44 41 39 37 38 39 40 40 39 38 37 40 41 40 38 35 33 31 28 24 22 21 21 21 21 22 22 21 21 21 20 19 18 16 16 17 17 17 18 19 20 21 21 19 16 13 11 12 13 15 16 16 17
24 24 31 36 34 32 31 29 31 36 39 38 37 39 43 46 45 46 47 47 46 46 43 41 41 40 40 39 40 39 37 37 40 41 41 39 36 33 29 26 24 23 22 22 23 26 28 26 23 21 20 20 19 19 19 19 20 20 18 18 19 20 21 19 17 14 13 12 11 12 15 17 17 16
23 25 28 30 32 33 32 31 33 36 38 38 37 37 40 44 45 45 47 47 46 44 42 42 41 42 41 40 41 41 39 38 40 42 41 40 38 35 30 26 24 24 24 22 23 26 30 29 25 21 19 18 17 18 21 23 23 23 21 19 19 21 21 18 16 14 12 13 13 14 16 18 17 15
21 24 26 29 31 31 32 34 36 37 38 39 40 38 39 42 46 48 50 50 48 44 42 42 41 41 41 40 41 42 41 39 39 39 39 38 38 36 31 27 26 26 26 25 23 24 28 30 27 22 17 13 10 11 17 23 23 23 25 23 21 21 21 18 15 14 14 15 16 16 17 17 15 14
17 21 24 27 29 30 32 35 38 39 41 42 42 41 41 44 48 52 54 54 50 46 45 45 44 43 42 40 40 40 40 40 39 38 36 35 35 34 30 27 27 27 27 26 25 24 25 28 28 24 17 10 6 6 12 18 19 21 26 27 23 19 17 14 13 15 16 17 18 17 16 15 13 14
12 16 19 23 27 30 32 35 37 40 43 44 43 44 46 49 52 53 52 52 51 50 49 48 47 45 43 42 42 42 40 39 37 36 36 34 32 32 30 27 26 27 26 26 26 26 25 26 28 27 20 11 6 5 8 10 11 14 21 27 25 20 15 13 14 16 16 17 16 15 14 13 15 17
14 16 18 21 25 28 32 35 37 40 43 44 44 45 47 49 51 50 49 49 50 49 46 43 44 45 44 44 45 44 42 40 38 36 36 35 33 32 30 27 26 25 25 24 24 25 26 27 27 28 25 19 14 11 9 6 4 6 12 19 24 22 19 17 17 17 18 17 15 14 15 16 17 18
18 20 22 25 28 30 32 35 38 40 42 43 44 47 49 49 48 46 46 48 48 45 42 42 44 44 44 45 46 45 42 40 39 38 37 35 34 34 32 29 26 25 24 23 22 23 25 27 27 27 27 24 20 17 13 8 6 6 8 13 18 22 23 23 21 20 19 18 15 14 15 16 16 16
21 24 26 29 31 32 33 36 38 40 41 42 43 45 47 48 47 45 46 47 47 45 44 45 47 47 46 46 46 44 42 40 38 38 37 36 36 36 33 29 27 26 24 22 23 23 24 26 26 25 24 22 19 16 12 8 7 9 11 14 16 18 21 22 23 22 22 20 17 15 15 15 15 15
23 26 28 30 32 34 36 37 39 39 40 41 42 43 44 45 46 47 48 50 53 55 52 49 48 48 47 48 48 46 44 41 38 37 38 37 36 35 33 29 27 27 25 23 23 24 24 24 25 25 24 23 20 16 11 9 9 9 12 15 14 13 14 17 19 20 21 21 19 17 15 13 11 10
24 27 29 32 34 36 37 39 40 40 40 40 41 42 42 42 42 43 45 47 51 53 50 48 49 49 46 44 45 45 44 42 39 38 38 38 36 35 34 30 29 28 26 22 20 22 22 21 23 27 27 26 23 19 15 13 11 11 13 16 16 14 13 12 13 15 17 19 21 19 17 15 13 11
24 27 30 32 34 35 36 38 40 41 41 40 39 39 40 40 39 40 41 43 45 46 44 43 46 49 48 46 45 43 43 43 42 40 38 37 36 36 35 33 30 28 26 22 19 19 19 19 22 25 26 25 23 19 16 14 13 13 15 16 15 12 9 7 10 14 18 19 20 18 18 18 17 17
24 28 32 33 33 34 35 36 38 41 41 40 37 36 36 36 37 38 38 37 37 40 45 48 48 47 46 47 46 45 44 43 41 40 38 35 33 33 34 32 29 26 24 23 21 19 18 19 21 24 23 21 19 18 17 16 15 16 16 15 13 12 12 13 15 17 17 16 15 13 13 13 13 14
Wind_Direction
208 209 212 218 224 224 213 207 210 219 213 192 194 204 204 202 195 171 182 191 210 227 227 210 193 192 193 193 200 207 213 221 230 239 244 245 244 243 246 250 249 245 245 249 253 260 270 278 283 287 292 297 302 307 310 311 312 313 314 316 316 315 312 309 306 304 303 303 302 302 302 302 301 299
209 212 212 216 223 224 216 212 208 210 215 204 193 198 203 207 214 219 203 198 202 217 231 211 180 181 194 197 198 208 220 224 229 239 241 241 244 244 246 250 245 238 239 243 247 257 272 281 287 292 296 299 302 304 306 307 309 312 313 315 315 314 313 311 310 309 308 308 308 307 306 305 302 300
210 214 215 216 220 220 212 209 211 211 213 210 202 202 207 210 218 222 224 223 207 217 235 201 176 180 190 197 200 205 221 228 226 230 230 230 241 247 249 249 245 240 241 244 249 258 273 285 293 297 296 296 297 298 300 302 304 307 310 311 311 312 311 310 310 310 309 309 310 309 308 305 301 298
210 213 217 217 217 217 213 208 208 210 210 208 206 208 212 214 216 219 219 225 223 225 223 169 169 185 190 192 200 205 217 225 226 231 228 225 237 243 247 249 250 251 248 246 252 260 272 284 293 298 297 294 292 292 293 295 298 302 304 306 308 309 309 309 308 308 309 309 310 309 307 305 303 299
210 213 215 219 217 214 215 211 206 207 205 203 204 208 213 215 216 218 217 220 225 226 217 193 180 189 190 187 194 202 212 220 227 234 229 225 237 242 245 252 252 251 250 250 257 265 273 282 290 297 299 294 289 289 289 291 295 298 300 301 303 305 305 305 307 308 310 311 311 311 309 307 304 301
211 213 213 217 218 213 214 215 209 207 205 200 202 206 211 214 214 215 216 217 221 219 217 218 211 192 185 188 195 201 211 222 229 235 230 226 238 246 247 251 252 250 252 255 261 266 271 277 285 294 298 293 287 287 288 290 294 294 296 298 300 302 303 304 307 308 310 311 311 311 310 309 308 305
211 212 212 213 215 213 213 215 213 210 208 203 201 204 208 211 212 214 214 214 218 221 215 213 216 208 193 194 205 207 211 221 231 238 235 227 231 243 246 246 247 250 257 260 259 261 265 272 280 289 296 293 286 287 289 291 291 291 292 294 295 296 298 300 303 306 308 309 309 310 310 311 312 311
211 212 213 213 213 212 211 212 212 211 211 207 203 203 206 208 210 212 212 212 214 221 221 211 209 213 207 205 213 213 209 216 228 235 237 230 227 235 243 245 246 251 260 263 259 261 266 272 278 285 291 290 286 288 292 291 290 291 291 291 291 291 291 294 297 301 305 307 309 310 310 311 313 314
214 213 214 213 212 211 211 210 210 211 212 210 206 205 205 207 208 209 211 211 211 215 223 216 205 207 214 216 216 215 210 212 222 231 233 231 229 232 238 243 247 254 259 259 260 264 266 268 272 277 280 281 280 286 291 291 294 299 296 290 288 288 289 292 294 297 302 306 308 308 308 309 311 311
217 216 215 215 213 211 211 211 210 210 212 212 209 207 207 207 207 208 209 209 209 213 220 221 207 204 210 210 207 211 213 211 215 223 225 228 232 235 238 241 246 255 262 261 259 259 262 267 271 270 268 269 274 284 288 291 300 303 296 286 283 286 288 288 289 294 300 303 303 303 303 305 307 308
218 218 217 216 215 213 213 212 211 210 210 211 211 209 209 208 206 208 209 206 206 209 215 221 216 208 207 205 202 209 214 213 215 219 218 221 229 234 239 241 241 247 257 259 258 263 272 277 274 269 269 273 280 285 281 284 296 295 282 273 273 278 282 281 285 294 298 299 296 295 297 299 301 303
218 219 218 218 217 216 216 214 213 211 210 209 210 209 209 208 206 206 207 206 203 205 210 216 219 213 208 206 207 207 206 209 216 218 217 219 224 230 237 240 240 245 251 252 253 264 273 272 266 265 273 279 279 279 278 281 285 278 269 267 268 273 280 285 292 297 296 294 293 293 294 296 298 301
217 218 218 219 219 218 218 217 215 214 213 210 208 208 207 207 206 205 206 206 204 202 205 210 214 215 210 205 204 203 203 208 214 217 218 221 225 227 231 236 239 242 248 250 251 257 261 261 259 261 274 284 284 283 281 277 270 263 263 266 267 276 292 301 304 305 300 297 296 298 301 303 305 307
218 218 219 219 219 218 219 219 217 216 216 214 212 210 207 206 205 204 204 206 205 202 203 206 207 211 211 205 203 205 208 211 213 215 215 218 222 222 223 233 240 240 241 242 242 243 243 246 255 261 268 278 284 283 278 267 256 251 256 264 274 293 308 311 309 306 306 304 303 306 309 312 315 315
218 219 219 220 220 220 221 220 218 217 217 218 216 214 212 210 208 205 204 204 205 204 205 206 206 209 212 209 206 207 211 211 212 213 214 213 215 215 214 219 229 234 233 228 229 237 241 248 261 265 267 270 269 269 271 266 251 247 262 282 298 309 313 311 307 302 302 303 303 305 306 308 311 311
220 219 220 220 221 222 222 221 219 217 218 219 218 216 216 215 213 211 209 207 205 205 205 207 208 210 211 210 207 206 208 209 209 210 212 211 210 210 212 215 220 225 223 217 224 239 247 255 262 263 266 268 262 257 258 258 259 270 286 298 303 307 310 313 313 309 307 307 306 307 307 306 306 304
220 220 220 220 222 223 223 222 220 218 218 219 218 216 216 218 218 216 215 213 210 209 208 208 210 211 211 210 208 207 206 207 205 205 208 211 210 210 213 218 220 220 216 214 219 234 244 249 254 259 263 261 258 257 255 262 277 283 286 294 300 302 305 313 320 323 325 326 324 320 315 311 308 305
221 222 221 221 222 223 222 222 220 218 217 217 216 214 215 218 219 217 217 217 215 214 213 213 214 214 213 214 213 209 207 207 205 204 205 207 209 212 216 219 220 218 216 214 215 231 241 239 244 255 256 253 257 262 264 270 277 280 286 292 295 296 302 310 317 325 333 338 338 333 325 317 312 308
222 223 223 223 223 222 223 222 220 217 216 215 214 213 214 217 218 218 218 217 216 217 217 217 218 217 216 218 217 213 211 211 210 208 208 208 209 212 214 215 213 211 213 212 211 225 233 226 233 248 247 243 253 264 272 275 274 282 289 288 285 292 302 305 308 318 330 338 341 339 335 327 318 313
223 223 223 223 224 223 223 224 223 219 216 214 212 212 214 216 217 219 221 220 218 218 219 219 219 219 219 219 219 215 212 211 210 208 206 206 206 204 203 206 208 209 214 217 215 219 221 216 222 237 239 240 252 260 267 274 278 281 279 276 282 294 296 295 302 314 326 336 341 340 338 333 327 319
224 224 224 223 224 224 224 225 225 221 215 213 211 211 213 215 216 219 223 222 220 220 221 220 219 218 218 218 218 217 212 209 206 200 196 196 198 198 195 198 207 214 219 220 215 212 212 212 216 227 234 243 251 255 262 270 270 268 265 272 287 293 287 287 299 308 319 331 335 332 330 327 322 314
227 227 226 225 224 224 224 225 225 221 215 212 212 211 212 214 216 219 221 220 219 220 221 221 219 218 217 217 217 215 212 209 204 200 197 194 194 198 197 198 210 222 227 220 208 201 202 205 208 218 232 246 253 259 269 269 259 259 270 279 283 284 285 289 294 299 311 322 324 321 320 317 311 305
231 230 229 228 226 226 225 224 224 222 217 214 213 212 211 213 217 219 218 216 215 216 217 218 218 218 218 218 218 216 212 210 206 203 201 197 197 201 202 203 212 226 225 209 198 193 197 200 202 211 223 241 254 253 252 255 261 271 277 273 273 280 285 287 291 296 303 311 314 314 314 312 304 296
233 233 233 231 230 228 226 225 225 224 220 217 216 213 212 215 219 219 217 216 214 212 213 214 216 216 217 218 219 219 214 211 208 205 203 202 203 204 203 205 214 224 211 197 194 193 194 195 199 206 212 222 241 245 246 255 258 254 253 262 274 278 277 280 288 293 296 301 304 307 311 311 300 289
233 234 235 236 236 232 229 227 226 226 224 220 217 216 217 219 221 219 217 216 214 211 210 211 212 213 214 215 217 217 214 210 207 206 205 205 208 207 205 207 216 223 213 194 194 196 191 188 193 200 207 222 240 251 261 264 255 251 261 272 272 268 268 276 282 285 289 293 296 300 306 307 300 295
234 237 237 239 242 239 235 232 229 230 228 222 219 220 222 222 221 219 217 215 212 209 206 204 206 208 208 208 210 211 211 209 206 206 206 207 209 211 213 214 216 219 211 193 195 202 200 193 194 198 206 220 233 243 253 261 260 263 269 267 261 262 271 275 277 281 285 284 285 291 296 298 300 303
237 240 240 242 244 244 242 238 234 233 231 225 222 223 223 222 221 219 217 214 210 206 202 200 201 202 203 203 204 205 207 207 206 207 208 208 209 210 213 217 220 223 215 196 196 206 209 203 201 206 212 216 221 230 244 258 264 266 266 263 260 265 272 272 273 278 278 276 280 283 283 290 298 300
238 240 242 244 246 246 246 243 240 237 234 230 226 224 222 223 221 217 214 212 207 203 199 198 199 199 199 200 201 202 204 204 205 207 208 210 210 208 209 214 218 218 209 194 196 206 211 211 214 217 216 214 214 221 233 245 252 262 276 279 273 268 269 271 272 274 273 273 276 275 279 288 294 295
238 238 239 243 246 247 246 246 244 241 236 232 229 225 223 221 219 215 213 210 205 201 199 199 198 198 198 199 200 200 200 200 203 205 205 207 207 206 206 209 210 207 200 193 198 208 216 223 224 218 214 217 221 224 231 240 249 260 271 277 278 274 271 270 266 265 266 268 270 273 278 283 286 293
236 235 235 238 244 248 248 246 245 243 239 234 230 227 224 221 218 217 214 210 205 203 202 201 200 198 197 198 197 197 196 196 197 198 198 199 200 201 201 199 195 195 194 192 195 206 217 226 225 213 210 217 222 224 229 239 251 260 264 269 275 277 275 271 266 263 265 267 268 269 268 271 284 297
235 235 234 236 241 245 248 248 246 245 242 236 231 227 224 221 220 219 217 213 210 208 206 204 202 200 197 194 193 193 193 192 193 193 193 193 194 195 194 189 186 190 196 199 204 211 217 221 219 214 211 214 219 224 231 239 249 258 263 267 269 270 271 272 270 269 268 264 261 261 268 282 296 301
236 237 238 240 241 243 245 245 243 239 237 233 230 226 223 221 221 221 220 218 215 214 211 207 203 198 194 191 189 189 189 189 190 191 189 189 190 189 186 183 182 186 193 199 208 215 218 216 216 217 218 220 222 224 228 236 246 255 261 265 265 264 265 266 267 269 268 262 262 273 284 293 298 297
243 238 241 244 247 248 246 244 240 236 232 229 228 226 223 222 222 221 219 218 217 216 213 208 202 197 193 190 187 186 186 186 188 188 187 185 185 185 184 185 185 186 190 198 207 215 217 214 214 219 223 225 226 226 227 235 244 249 254 260 264 263 262 262 263 265 268 270 276 284 289 292 293 290
248 237 239 245 249 250 248 244 241 238 232 228 227 227 226 225 223 221 220 218 217 215 211 206 202 198 193 190 186 184 183 183 184 184 184 182 180 181 182 185 186 189 193 201 211 214 212 207 206 212 218 223 229 235 238 239 242 246 249 254 259 260 261 262 260 260 266 274 280 285 286 287 289 288
242 233 235 241 245 247 247 244 243 241 237 232 230 228 226 225 224 223 223 221 218 215 210 207 203 199 195 190 186 184 182 179 178 179 180 179 178 181 183 183 184 189 196 203 212 211 204 197 195 198 208 217 228 240 245 242 240 242 243 245 250 255 257 257 255 257 266 274 278 280 279 279 285 289
240 233 233 238 242 243 243 243 243 242 239 236 233 230 226 224 223 223 223 222 219 214 210 207 203 200 197 190 185 182 180 176 175 176 178 177 176 177 181 184 185 190 196 204 211 208 196 191 189 189 196 209 218 235 247 247 244 241 236 233 238 246 249 249 252 259 268 272 273 272 271 273 282 292
253 245 242 244 246 245 244 243 243 242 240 238 235 232 230 227 226 225 223 220 217 213 210 207 203 200 196 189 182 180 178 175 175 176 177 177 174 172 175 180 185 190 194 202 211 207 192 187 189 190 194 205 210 226 247 253 252 243 232 226 226 235 243 248 253 260 265 267 266 266 269 277 290 300
283 268 259 258 258 257 254 251 247 244 242 239 236 234 232 231 230 228 223 218 215 212 209 206 201 197 192 185 180 178 176 175 175 175 175 175 173 172 174 176 179 185 193 202 210 208 196 188 189 192 196 204 214 226 242 247 245 238 229 223 222 228 239 247 251 256 261 263 264 266 272 284 296 302
302 288 278 271 268 266 263 260 256 251 248 244 240 237 235 234 233 229 222 218 216 213 208 204 199 195 190 183 180 178 175 172 172 173 174 174 174 175 177 176 176 183 193 201 206 203 198 195 194 197 203 209 216 227 236 231 208 210 215 216 219 226 237 245 249 254 258 258 261 267 276 286 295 301
306 298 289 281 276 272 268 266 263 259 256 252 247 242 240 239 236 230 222 216 214 211 207 202 198 194 189 184 181 177 173 172 172 173 172 171 173 175 177 177 180 186 192 198 201 198 196 198 201 205 210 215 221 231 239 243 239 231 227 226 229 234 241 247 248 249 250 252 257 265 274 284 292 298
309 303 296 289 284 279 273 270 268 266 263 261 257 252 248 243 240 234 225 216 210 207 204 200 196 191 186 183 179 175 171 170 172 172 169 168 171 175 175 175 182 188 191 195 199 200 201 206 210 214 216 219 222 226 231 238 247 255 264 266 258 251 248 248 247 245 246 250 255 260 267 276 283 288
313 308 304 300 294 287 280 275 271 269 267 265 263 261 258 252 245 238 227 216 207 203 200 196 190 186 183 179 175 172 169 168 168 168 167 167 169 171 172 176 183 189 192 193 194 199 205 211 213 215 215 214 213 214 217 222 230 248 265 269 267 263 259 256 252 249 248 250 253 256 264 273 277 278
318 314 313 312 306 298 288 279 273 270 268 265 263 262 261 259 253 243 231 219 210 203 197 188 181 179 177 175 172 168 165 164 163 164 166 169 169 168 173 181 188 191 193 192 191 194 200 204 206 207 207 208 210 212 214 220 229 244 257 260 260 263 264 259 254 253 254 255 256 257 263 270 272 273
322 319 318 318 317 311 300 287 275 268 265 264 263 262 260 259 257 250 239 227 214 202 192 181 175 172 171 169 166 164 162 161 161 162 164 166 167 169 175 183 188 188 188 188 185 186 189 193 198 199 198 201 206 209 212 220 231 239 247 252 254 257 263 266 262 260 259 257 255 255 261 270 273 275
322 324 325 325 325 324 318 303 285 272 265 262 262 262 260 258 255 249 240 230 216 201 188 177 168 165 165 166 163 160 159 159 160 161 161 160 163 169 176 181 182 179 179 182 183 182 181 185 189 191 194 198 205 212 219 224 228 234 242 251 260 269 276 275 267 259 253 249 249 257 267 276 281 284
Height
839 840 840 841 841 842 843 844 845 845 846 846 847 848 848 850 853 855 856 855 852 853 853 854 855 856 857 858 859 860 860 861 861 862 862 862 862 862 863 863 864 864 865 865 865 865 865 865 865 864 864 864 863 863 862 862 862 861 861 860 860 859 859 859 858 858 858 857 857 857 856 856 855 855
837 838 839 839 839 840 841 842 843 844 845 845 846 847 847 848 849 851 854 853 851 851 852 852 853 854 856 857 858 859 859 859 860 860 861 861 860 861 862 862 863 863 863 864 864 864 864 864 864 863 863 862 862 861 861 861 860 860 859 859 858 858 857 857 857 856 856 856 856 855 855 854 854 853
835 836 837 838 837 838 839 840 841 842 843 844 845 846 846 847 848 848 850 851 850 849 850 850 851 852 854 856 857 857 858 858 859 859 859 859 859 860 861 861 861 862 862 862 863 863 863 863 862 862 862 861 861 860 860 859 859 859 858 857 857 856 856 856 855 855 855 854 854 854 853 853 852 852
832 833 835 836 836 837 837 838 839 840 840 842 843 845 846 846 847 848 848 849 849 849 850 850 850 851 853 854 855 856 856 857 857 857 858 858 859 859 859 859 860 861 861 861 861 861 862 862 861 861 861 860 860 859 859 858 858 858 857 856 856 855 855 854 854 853 853 853 852 852 851 851 850 850
830 830 832 833 834 835 836 836 837 838 838 840 841 843 844 845 845 846 847 847 848 848 849 850 850 850 851 852 854 855 855 855 856 856 857 857 857 857 858 858 859 859 860 860 860 860 860 860 860 860 859 859 858 858 858 857 857 856 856 855 855 854 853 853 852 852 851 851 850 850 849 849 848 848
827 828 828 830 831 833 834 835 835 836 836 837 839 840 842 843 843 844 845 846 847 847 847 848 849 849 849 850 852 853 853 853 854 855 856 856 856 857 857 857 857 858 858 858 858 859 859 859 859 858 858 858 857 857 856 856 856 855 855 854 854 853 852 851 851 850 850 849 848 848 847 847 846 846
823 825 825 827 828 830 831 832 833 834 835 835 836 837 839 840 841 842 844 844 845 846 846 847 848 848 848 848 849 851 851 852 852 853 854 855 856 856 856 856 856 856 856 857 857 857 857 858 857 857 857 856 856 855 855 855 854 854 854 853 853 852 851 850 849 849 848 847 847 846 846 845 845 844
820 821 822 823 825 827 828 829 831 832 833 833 833 835 836 837 839 840 841 842 843 844 845 845 845 846 847 847 848 849 850 851 851 851 852 853 854 855 855 855 855 855 855 855 856 856 856 856 856 855 855 855 854 854 853 853 853 852 852 852 851 851 850 849 848 847 847 846 846 845 844 843 843 842
817 818 819 820 822 824 824 826 827 829 830 831 831 832 833 834 836 837 838 839 841 842 843 843 843 844 845 845 846 847 847 849 850 850 850 851 852 853 853 854 854 854 854 854 854 854 854 854 854 854 853 853 853 852 851 851 851 851 851 850 850 849 848 848 847 847 846 845 844 843 842 842 841 841
813 814 816 817 818 820 821 822 824 825 827 828 829 830 831 832 833 834 835 836 838 839 840 841 841 842 842 843 844 844 845 847 848 848 849 849 850 851 851 852 852 852 852 852 852 852 852 852 851 851 851 851 851 850 850 849 849 849 849 849 848 848 847 847 846 845 845 844 843 842 841 840 839 839
809 811 812 813 814 816 817 818 820 822 823 825 826 827 828 829 830 831 832 833 834 836 837 838 839 839 840 840 841 842 843 845 846 847 847 847 848 848 849 849 850 850 850 850 850 850 850 849 849 849 849 849 848 848 848 848 847 847 847 847 847 847 846 846 845 844 843 842 841 840 839 838 838 837
805 806 808 809 810 811 812 814 816 817 819 820 822 823 825 826 827 828 829 830 831 832 833 835 836 836 837 838 839 841 842 842 843 843 844 844 844 845 846 846 847 848 848 848 848 848 847 847 847 847 847 846 846 846 846 846 846 846 846 846 845 845 845 844 843 842 841 840 839 838 837 837 836 835
800 801 803 804 805 806 807 809 811 812 813 815 816 818 820 822 823 824 825 826 827 828 830 831 832 833 834 835 836 837 837 838 838 840 841 841 841 842 843 843 844 845 845 845 846 846 846 845 845 845 845 844 844 844 844 844 844 844 844 844 844 844 843 842 841 840 839 838 837 836 835 835 834 833
795 796 798 799 800 801 803 804 806 807 809 809 810 812 813 815 818 819 821 822 823 824 826 827 828 829 830 830 831 833 833 834 836 837 838 838 839 840 840 840 840 841 842 843 843 843 844 843 843 843 842 842 842 842 841 841 842 842 842 842 842 842 841 840 839 838 837 836 835 835 834 833 833 832
790 792 793 794 796 797 798 799 801 802 804 805 806 808 809 810 812 814 815 817 819 820 821 823 824 825 825 826 827 829 830 832 833 834 835 835 836 836 836 836 837 838 839 840 840 841 841 841 841 840 840 840 840 839 839 839 839 839 840 840 840 840 839 838 837 836 835 834 833 833 832 831 831 831
785 787 788 790 791 792 792 794 796 798 799 801 802 804 806 807 807 808 809 811 813 815 817 818 819 820 821 822 823 825 826 828 829 830 831 832 832 832 832 833 833 834 836 837 837 838 838 839 838 838 837 837 837 837 837 837 837 837 837 838 838 838 838 836 835 834 833 832 831 831 830 830 829 829
780 781 783 785 786 787 787 789 791 793 795 796 798 801 802 802 803 804 805 807 809 810 812 813 813 815 817 818 818 820 822 824 825 826 827 828 829 829 829 829 830 831 833 834 835 835 836 836 836 836 835 835 835 834 835 835 835 835 835 836 836 836 836 835 833 832 831 830 829 829 828 827 827 827
774 775 777 779 780 782 783 783 785 787 789 791 794 796 797 797 798 800 802 804 805 807 808 808 809 811 812 813 814 816 818 819 820 821 822 824 825 826 826 827 828 828 829 831 832 832 833 833 834 834 833 834 833 832 832 833 833 833 833 834 835 835 834 833 832 830 829 828 827 826 826 825 825 825
767 769 772 773 774 776 777 778 779 781 783 786 788 791 792 793 794 796 797 798 800 802 803 804 806 807 809 810 811 812 814 815 815 816 818 820 822 823 824 825 826 826 826 827 829 829 830 830 831 831 831 832 831 830 830 830 831 831 831 832 832 833 832 831 830 829 827 826 825 824 824 823 823 823
762 764 766 767 769 771 771 772 773 775 779 781 783 786 787 788 790 791 791 792 795 797 798 800 802 804 805 806 807 808 809 811 812 814 816 818 819 821 822 822 822 822 822 823 824 825 826 827 828 829 829 829 829 829 828 828 828 829 829 830 830 830 830 829 828 827 826 824 823 823 822 822 822 822
757 759 760 762 764 765 765 766 768 771 774 776 778 781 782 784 786 786 786 788 790 792 794 796 798 800 801 802 803 804 805 807 808 810 812 813 815 817 818 818 819 818 817 818 819 821 822 824 825 826 826 827 827 827 826 825 825 826 827 828 828 828 828 827 826 825 824 823 822 821 821 821 821 820
753 754 755 756 758 758 759 761 763 766 769 771 773 776 778 780 780 779 781 783 785 788 790 792 794 796 797 798 799 800 801 802 804 805 807 809 812 814 814 815 815 814 813 812 814 816 818 820 821 823 824 824 824 824 823 822 822 823 824 825 826 826 826 825 824 823 822 821 820 819 819 819 819 819
749 750 750 751 751 752 755 758 759 761 764 766 768 771 773 774 772 771 775 779 781 783 786 787 789 791 792 794 795 796 797 798 800 801 803 806 808 809 810 812 813 812 811 810 811 812 813 815 817 819 821 821 821 821 821 820 820 821 822 823 824 824 824 823 822 821 820 819 818 817 817 817 817 817
745 745 746 746 747 749 752 754 755 757 759 761 764 766 767 765 764 766 771 773 775 777 779 781 783 786 788 790 791 792 793 794 796 797 799 801 802 803 805 808 810 810 809 809 810 810 810 811 813 815 817 818 818 818 818 818 818 819 820 821 821 822 822 821 820 819 818 817 816 816 815 816 816 815
741 742 743 744 746 747 749 751 751 752 753 755 758 759 757 757 760 764 766 766 768 770 772 774 777 780 783 785 787 788 789 790 792 793 794 796 798 799 800 802 805 806 806 806 808 808 808 809 810 812 814 815 815 816 816 816 816 816 817 818 819 819 819 819 818 817 816 815 814 814 814 814 814 813
738 739 741 743 745 746 747 748 748 748 749 751 752 751 751 754 757 760 761 762 764 764 765 767 770 772 775 778 781 782 784 786 788 789 790 792 795 797 797 798 800 801 801 803 805 806 806 806 806 809 810 812 813 813 813 813 813 814 815 816 816 817 817 817 816 815 814 814 813 812 812 812 812 812
735 738 739 741 743 744 744 744 744 745 746 746 746 746 749 751 753 755 757 758 758 758 758 760 761 763 766 769 772 775 778 781 783 785 786 789 791 794 795 796 797 797 798 799 802 803 804 804 804 806 808 809 810 811 811 811 810 811 813 813 814 815 815 815 814 813 813 812 811 810 810 810 810 810
732 734 736 738 740 739 739 739 740 740 740 740 741 744 746 747 747 749 750 749 749 750 750 751 752 754 757 760 763 766 770 774 778 781 783 785 787 790 792 793 794 794 794 796 798 801 803 804 804 804 805 807 808 808 808 808 809 809 811 811 812 813 813 813 812 811 811 810 809 808 808 808 808 808
727 730 733 735 735 734 734 734 734 733 733 734 736 738 739 739 739 739 740 740 741 741 741 742 743 745 748 750 754 758 763 768 772 776 779 782 784 787 789 790 791 791 791 792 795 797 800 801 802 803 804 804 805 806 806 807 807 807 809 809 809 810 811 811 810 809 809 808 807 807 806 806 806 806
722 725 728 730 730 729 728 727 727 727 728 728 728 728 729 731 731 731 733 734 734 734 734 735 736 738 741 744 749 753 757 760 763 767 772 777 780 783 784 786 787 789 789 790 792 794 796 798 800 801 802 803 803 803 804 805 804 805 806 807 808 808 808 808 808 807 807 806 805 805 804 804 804 804
717 721 725 725 724 722 721 720 720 721 721 721 720 720 722 724 724 725 727 728 729 728 728 729 730 732 736 740 743 746 749 751 754 759 764 769 774 777 779 781 783 785 787 789 790 792 794 794 796 799 800 801 801 801 802 803 802 802 803 805 806 806 806 806 806 805 805 804 803 803 802 802 802 802
715 720 722 720 717 715 715 715 715 714 714 714 714 716 717 718 719 720 723 723 723 722 722 723 724 727 729 732 736 739 742 745 748 752 756 762 767 771 774 776 779 782 784 786 789 791 793 793 794 796 797 798 799 799 800 800 800 799 800 802 803 804 804 804 804 803 803 802 801 800 800 800 800 801
716 718 717 715 714 713 713 712 710 709 708 708 710 711 711 712 713 715 715 715 714 714 716 718 720 721 722 724 727 731 735 738 742 746 750 755 761 766 769 771 774 778 781 783 786 789 791 792 792 793 795 796 796 797 797 797 797 797 797 799 800 801 801 801 801 801 801 800 799 799 798 798 798 799
713 714 713 712 712 711 710 709 707 705 704 704 706 706 707 708 708 708 707 705 704 706 708 711 712 714 716 717 719 722 726 730 735 740 744 748 755 761 764 767 770 774 778 780 783 785 787 788 789 791 794 795 794 794 794 794 794 794 794 796 797 797 798 798 799 799 799 798 798 797 796 796 796 796
708 709 709 708 707 707 706 704 703 701 700 699 700 700 700 701 701 701 700 698 698 699 701 703 705 707 708 710 712 715 719 723 728 733 737 740 746 753 760 764 766 770 774 777 780 782 783 783 785 789 792 793 793 792 791 791 791 791 791 792 794 794 795 796 796 796 796 796 796 795 794 793 793 793
703 703 703 702 701 701 700 698 696 695 694 693 693 692 691 690 690 689 688 688 690 692 694 696 699 700 702 704 706 709 713 718 724 729 732 734 737 744 753 759 762 766 770 773 776 779 779 779 781 785 789 790 791 789 787 786 786 786 786 788 790 791 792 793 793 794 794 794 794 793 792 791 790 791
700 700 700 698 696 695 693 691 689 687 685 684 684 683 682 679 677 675 676 678 681 682 684 687 689 692 696 699 701 705 709 713 718 723 728 731 733 738 745 753 758 762 766 769 773 775 774 775 778 782 785 787 787 785 783 781 781 780 781 783 786 788 790 790 790 791 792 792 792 791 789 789 788 789
698 698 697 696 694 692 689 686 683 679 676 674 673 672 670 666 664 664 667 669 670 670 672 675 678 682 686 690 693 698 702 707 713 718 722 727 730 734 740 746 752 757 761 765 769 770 770 771 774 778 780 782 782 781 780 778 777 776 777 780 783 785 787 787 788 789 789 789 789 788 787 786 786 786
695 695 694 692 690 688 685 681 677 673 668 665 664 661 658 655 653 654 657 660 661 662 665 668 672 676 679 682 685 689 693 699 706 711 716 720 725 730 736 741 746 752 758 761 764 765 765 767 770 773 775 776 777 777 777 777 776 775 776 779 781 783 784 785 785 786 786 786 786 785 785 784 783 783
692 691 689 687 684 682 679 675 671 667 662 658 655 653 650 648 647 647 648 650 653 657 661 665 668 671 674 675 679 682 687 693 700 706 710 714 720 727 732 736 742 748 753 756 759 760 761 762 765 768 771 773 774 776 776 775 775 775 776 778 779 780 781 781 782 783 783 783 783 783 782 781 780 780
689 687 685 682 679 677 673 669 665 661 657 653 650 646 643 641 640 640 640 641 643 646 649 652 656 659 663 667 672 676 682 689 695 701 705 710 716 723 728 733 740 745 749 751 753 754 756 759 763 766 769 771 773 774 773 773 772 772 773 775 776 776 777 777 778 779 780 780 780 780 779 778 778 777
687 684 681 679 676 672 668 664 659 655 651 648 645 642 639 635 633 632 632 630 629 629 632 636 641 647 652 657 662 668 675 682 689 695 701 706 712 718 724 731 737 741 744 746 748 750 753 757 761 764 767 769 770 770 769 769 769 770 771 772 773 773 773 774 775 776 776 777 777 777 776 776 775 774
685 682 680 677 673 668 663 658 652 648 643 640 637 635 633 630 628 626 623 619 615 614 617 622 629 637 646 653 658 662 668 675 683 691 698 703 707 713 720 727 733 737 740 742 745 748 751 754 757 760 763 764 765 766 766 766 767 768 769 770 770 771 771 771 772 773 774 774 774 774 774 774 773 772
685 682 678 674 669 664 657 651 644 639 634 631 628 627 626 624 622 620 617 613 611 611 614 617 621 629 638 647 653 659 664 670 677 687 695 700 704 710 717 725 730 734 737 740 743 746 749 751 754 757 759 760 762 762 763 763 764 765 766 767 768 768 768 769 769 770 770 770 771 771 771 771 770 770
683 681 676 671 666 660 653 645 637 631 625 622 621 620 618 617 615 613 611 608 607 607 609 610 613 623 634 642 646 651 659 667 676 684 691 697 703 709 716 722 727 730 734 736 740 744 747 750 752 754 756 758 759 760 761 761 762 763 764 764 765 765 766 766 767 767 767 767 768 768 769 768 768 768